Location: Sungai Laei
(2.6000°N, 113.7167°E)
Time: 12:15:58
(UTC+00:00)

CZ-2C R/B - Pass Details

Date: 14 October 2022
Orbit: 703 x 908 km, 98.1° (Epoch: 08 December)

Event Time Altitude Azimuth Distance (km) Brightness Sun altitude
Rises 20:48:52 0° 3° (N) 3,257 6.2 -20.7°
Reaches altitude 10° 20:51:17 10° 358° (N) 2,300 5.4 -20.1°
Maximum altitude 20:56:10 52° 283° (WNW) 912 3.0 -18.9°
Drops below altitude 10° 21:00:52 10° 206° (SSW) 2,206 5.2 -17.7°
Sets 21:03:08 0° 201° (SSW) 3,111 6.0 -17.2°
